[[{"header":{"parameterUnit":"m.s-1","parameterCategory":1,"la1":30.2991,"la2":30.254,"lo1":-89.0895,"lo2":-89.0444,"dy":0.0017,"dx":0.0017,"nx":28,"ny":28,"refTime":"2024-10-05T09:00:00:Z","depth":0,"parameterNumber":2,"parameterNumberName":"U-component_of_WINDS"},"data":[0,0,0,0,0,0,0,0,0,0,0,0,0,0,0,0,0,0,0,0,0,0,0,0,0,0,0,0,0,0,0,0,0,0,0,0,0,0,0,0,0,0,0,0,0,0,0,0,0,0,0,0,0,0,0,0,0,0,-4.6121,-4.6122,0,-4.62,-4.6201,-4.6202,-4.6013,-4.6007,-4.6001,-4.5995,-4.6081,-4.6089,-4.6096,0,0,0,0,0,0,0,0,0,0,0,0,0,-4.5812,-4.5818,-4.6121,-4.6122,-4.6123,-4.62,-4.6201,-4.6202,-4.6014,-4.6007,-4.5999,-4.5993,-4.6078,-4.6088,-4.6097,0,0,0,0,0,0,0,0,0,0,0,0,0,-4.5924,-4.5821,-4.6121,-4.6039,-4.6032,-4.62,-4.6201,-4.6202,-4.6016,-4.6007,-4.5998,-4.5989,-4.6075,-4.6087,-4.6098,-4.6351,0,0,-4.6134,-4.6139,0,0,0,0,0,0,0,0,-4.5918,-4.5936,-4.605,-4.6045,-4.6037,-4.6087,-4.6123,-4.6252,-4.6018,-4.6022,-4.5995,-4.5985,-4.6091,-4.6101,-4.6135,-4.6355,-4.6359,-4.6135,-4.6143,-4.6148,-4.6151,0,0,0,0,0,0,0,-4.5911,-4.5931,-4.6152,-4.6052,-4.6044,-4.5999,-4.6005,-4.6147,-4.6106,-4.6021,-4.6007,-4.6019,-4.6086,-4.6124,-4.6136,-4.636,-4.6135,-4.6146,-4.6153,-4.6157,-4.6791,-4.68,0,0,0,0,0,0,-4.5913,-4.5926,-4.615,-4.6155,-4.5954,-4.6012,-4.6018,-4.6081,-4.6104,-4.6099,-4.6027,-4.601,-4.6109,-4.6122,-4.6138,-4.6435,-4.6148,-4.6159,-4.6165,-4.6781,-4.6793,-4.6804,0,0,0,0,0,0,-4.5907,-4.5934,-4.6147,-4.6037,-4.606,-4.6026,-4.6098,-4.6087,-4.6125,-4.6108,-4.61,-4.6074,-4.6102,-4.6122,-4.6299,-4.6436,-4.6164,-4.6175,-4.677,-4.6785,-4.6798,-4.7033,0,0,0,0,0,0,-4.5899,-4.5933,-4.6029,-4.604,-4.6067,-4.6306,-4.6106,-4.6095,-4.6146,-4.6124,-4.615,-4.6146,-4.6096,-4.6283,-4.6311,-4.6447,-4.6184,-4.6757,-4.6777,-4.6794,-4.7013,-4.7053,-4.7088,0,0,0,0,0,-4.5888,-4.6092,-4.6034,-4.6062,-4.6185,-4.6314,-4.633,-4.6267,-4.6157,-4.6253,-4.6242,-4.6145,-4.6416,-4.6302,-4.6333,-4.6475,-4.6749,-4.6771,-4.6792,-4.6995,-4.7045,-4.7087,0,0,0,0,0,0,-4.6099,-4.6093,-4.6028,-4.6242,-4.628,-4.6282,-4.6401,-4.6322,-4.6394,-4.6371,-4.6292,-4.63,-4.6493,-4.6501,-4.6374,-4.672,-4.6564,-4.6593,-4.6708,-4.6755,-4.6792,-4.6787,-4.6194,0,0,0,0,0,-4.617,-4.6275,-4.6264,-4.6454,-4.6476,-4.6436,-4.649,-4.6438,-4.6475,-4.6491,-4.6493,-4.6534,-4.6628,-4.6692,-4.6777,-4.7012,-4.7015,-4.7125,-4.7163,-4.7194,-4.722,-4.7345,-4.7394,-4.6876,-4.6876,-4.6875,0,0,-4.6319,-4.6328,-4.6399,-4.6496,-4.652,-4.6631,-4.6451,-4.6576,-4.6658,-4.651,-4.6678,-4.6681,-4.6721,-4.6929,-4.702,-4.6942,-4.7364,-4.7222,-4.7247,-4.7256,-4.7373,-4.7422,-4.7466,-4.6891,-4.6888,-4.6886,0,0,-4.6646,-4.6664,-4.6823,-4.685,-4.6887,-4.6859,-4.6898,-4.6912,-4.6908,-4.7074,-4.6966,-4.7063,-4.7227,-4.726,-4.7298,-4.7638,-4.7551,-4.7668,-4.7867,-4.7989,-4.803,-4.8066,-4.8187,-4.8232,-4.7694,-4.7695,-4.7695,0,-4.6827,-4.6988,-4.6916,-4.7048,-4.7094,-4.6964,-4.7126,-4.7156,-4.7221,-4.7256,-4.7166,-4.7369,-4.7387,-4.76,-4.7683,-4.7718,-4.776,-4.7665,-4.803,-4.8065,-4.8097,-4.8212,-4.8258,-4.7709,-4.7707,-4.7706,-4.7704,0,-4.7209,-4.7323,-4.7447,-4.7511,-4.7571,-4.7718,-4.7668,-4.7738,-4.7681,-4.7663,-4.7834,-4.7851,-4.7938,-4.7984,-4.7931,-4.8191,-4.8141,-4.8042,-4.7883,-4.8162,-4.8268,-4.8312,-4.7729,-4.7724,-4.7719,-4.7716,0,0,-4.7672,-4.7692,-4.7739,-4.7766,-4.7798,-4.7885,-4.8026,-4.8109,-4.817,-4.8219,-4.8336,-4.8477,-4.8386,-4.843,-4.8379,-4.8487,-4.8755,-4.8374,-4.8374,-4.8444,-4.9042,-4.9116,-4.9168,-4.8697,-4.8705,-4.8712,-4.9038,0,-4.7995,-4.8235,-4.8174,-4.8414,-4.8518,-4.8396,-4.8518,-4.8552,-4.8539,-4.8626,-4.8612,-4.8713,-4.8584,-4.861,-4.8711,-4.8701,-4.8874,-4.8676,-4.8806,-4.8812,-4.88,-4.9223,-4.9303,-4.961,-4.9079,-4.9086,-4.9091,0,-4.8405,-4.8467,-4.8717,-4.873,-4.8772,-4.8883,-4.8954,-4.9039,-4.9075,-4.9057,-4.9106,-4.9034,-4.9174,-4.9014,-4.9207,-4.9074,-4.9123,-4.9126,-4.9137,-4.9147,-4.8969,-4.9246,-4.9706,-4.9753,-4.9156,-4.9151,-4.9147,0,-4.8718,-4.8865,-4.9033,-4.906,-4.908,-4.9161,-4.9173,-4.9199,-4.9253,-4.9316,-4.935,-4.9429,-4.9473,-4.9536,-4.9487,-4.9375,-4.9688,-4.9524,-4.9679,-4.968,-4.975,-4.9747,-5.0226,-4.9783,-4.9782,-4.9781,-4.978,0,-4.9085,-4.9243,-4.9173,-4.9277,-4.945,-4.9378,-4.9552,-4.955,-4.9575,-4.9677,-4.9576,-4.9674,-4.9604,-4.9697,-4.966,-4.9825,-4.9846,-4.9836,-4.9825,-4.9846,-4.9847,-4.9877,-4.9855,-4.9793,-4.9791,-4.9788,-4.9786,0,-4.9464,-4.9424,-4.9599,-4.9603,-4.9608,-4.9735,-4.9739,-4.9836,-4.9814,-4.9944,-4.9971,-4.9939,-5.0042,-5.0,-5.011,-5.0085,-5.0297,-5.0257,-5.0285,-5.0275,-5.0432,-5.0418,-5.0948,-5.1014,-5.0528,-5.0533,-5.0537,0,-4.9701,-4.9819,-4.9836,-4.9896,-4.9915,-5.0013,-5.0067,-5.0001,-5.0062,-5.0111,-5.0202,-5.0296,-5.0368,-5.054,-5.0527,-5.0611,-5.0572,-5.0752,-5.0585,-5.0602,-5.0575,-5.0569,-5.058,-5.0786,-5.0792,-5.0797,-5.08,0,-5.0127,-5.0101,-5.0181,-5.0256,-5.0322,-5.0378,-5.0425,-5.0481,-5.0417,-5.049,-5.0594,-5.065,-5.0761,-5.0857,-5.0931,-5.0944,-5.0864,-5.0853,-5.0893,-5.0916,-5.0927,-5.0923,-5.0377,-5.0841,-5.0837,-5.0834,-5.0832,-5.083,-5.0442,-5.0541,-5.0567,-5.0661,-5.0689,-5.0735,-5.0826,-5.0815,-5.09,-5.0984,-5.0941,-5.1062,-5.1094,-5.1185,-5.121,-5.1304,-5.1234,-5.1293,-5.1307,-5.1323,-5.1343,-5.0912,-5.1318,-5.1317,-5.1315,-5.1314,-5.1314,0,-5.0862,-5.0872,-5.0959,-5.1027,-5.1101,-5.1015,-5.1063,-5.1131,-5.1238,-5.1274,-5.1346,-5.1466,-5.1558,-5.1552,-5.1637,-5.1714,-5.1679,-5.1739,-5.1732,-5.1737,-5.1401,-5.1358,-5.1766,-5.1766,-5.1766,-5.1765,-5.1765,-5.1765,-5.1089,-5.1252,-5.1229,-5.1405,-5.1415,-5.1531,-5.1566,-5.1608,-5.1636,-5.1774,-5.1849,-5.1844,-5.1864,-5.1949,-5.203,-5.2026,-5.2062,-5.2136,-5.2119,-5.1805,-5.1761,-5.1718,-5.1677,-5.2145,-5.2145,-5.2446,-5.2449,-5.2451]},{"header":{"parameterUnit":"m.s-1","parameterCategory":1,"la1":30.2991,"la2":30.254,"lo1":-89.0895,"lo2":-89.0444,"dy":0.0017,"dx":0.0017,"nx":28,"ny":28,"refTime":"2024-10-05T09:00:00:Z","depth":0,"parameterNumber":3,"parameterNumberName":"V-component_of_WINDS"},"data":[0,0,0,0,0,0,0,0,0,0,0,0,0,0,0,0,0,0,0,0,0,0,0,0,0,0,0,0,0,0,0,0,0,0,0,0,0,0,0,0,0,0,0,0,0,0,0,0,0,0,0,0,0,0,0,0,0,0,-1.2108,-1.2107,0,-1.2088,-1.2088,-1.2087,-1.2087,-1.2087,-1.2087,-1.2087,-1.2066,-1.2065,-1.2064,0,0,0,0,0,0,0,0,0,0,0,0,0,-1.2142,-1.2141,-1.2108,-1.2107,-1.2107,-1.2088,-1.2088,-1.2087,-1.2087,-1.2087,-1.2087,-1.2087,-1.2066,-1.2065,-1.2064,0,0,0,0,0,0,0,0,0,0,0,0,0,-1.2125,-1.2141,-1.2108,-1.2104,-1.2104,-1.2088,-1.2088,-1.2087,-1.2086,-1.2087,-1.2087,-1.2088,-1.2066,-1.2065,-1.2064,-1.205,0,0,-1.206,-1.206,0,0,0,0,0,0,0,0,-1.2126,-1.2124,-1.2105,-1.2105,-1.2104,-1.209,-1.2092,-1.2075,-1.2086,-1.2093,-1.2087,-1.2088,-1.2074,-1.2072,-1.2067,-1.2049,-1.2048,-1.206,-1.206,-1.2059,-1.2059,0,0,0,0,0,0,0,-1.2127,-1.2125,-1.21,-1.2105,-1.2104,-1.2103,-1.2101,-1.2088,-1.2081,-1.2093,-1.2092,-1.209,-1.2073,-1.2068,-1.2067,-1.2047,-1.206,-1.2059,-1.2059,-1.2058,-1.2013,-1.2012,0,0,0,0,0,0,-1.2129,-1.2126,-1.21,-1.2099,-1.2116,-1.2102,-1.21,-1.2094,-1.2082,-1.208,-1.209,-1.209,-1.207,-1.2068,-1.2066,-1.2046,-1.2059,-1.2058,-1.2057,-1.2013,-1.2012,-1.2012,0,0,0,0,0,0,-1.213,-1.2127,-1.2101,-1.2112,-1.2109,-1.2101,-1.2095,-1.2094,-1.2089,-1.208,-1.2078,-1.2086,-1.207,-1.2068,-1.2053,-1.2045,-1.2057,-1.2056,-1.2014,-1.2013,-1.2012,-1.2008,0,0,0,0,0,0,-1.2131,-1.2127,-1.2122,-1.2112,-1.2108,-1.2089,-1.2094,-1.2093,-1.2087,-1.2087,-1.2076,-1.2074,-1.2071,-1.2055,-1.2052,-1.2044,-1.2055,-1.2014,-1.2013,-1.2012,-1.2008,-1.2007,-1.2005,0,0,0,0,0,-1.2132,-1.2122,-1.2122,-1.2119,-1.2102,-1.2089,-1.2087,-1.2083,-1.2086,-1.2081,-1.2074,-1.2075,-1.2047,-1.2053,-1.205,-1.2042,-1.2015,-1.2014,-1.2012,-1.2009,-1.2007,-1.2005,0,0,0,0,0,0,-1.2132,-1.2121,-1.2121,-1.2108,-1.2099,-1.2089,-1.2082,-1.2081,-1.2072,-1.2072,-1.2067,-1.2065,-1.205,-1.2044,-1.2052,-1.2025,-1.2031,-1.2029,-1.203,-1.2028,-1.2026,-1.2027,-1.2054,0,0,0,0,0,-1.2131,-1.2121,-1.2112,-1.2101,-1.2097,-1.209,-1.2084,-1.2082,-1.2073,-1.2069,-1.2062,-1.2053,-1.2041,-1.2034,-1.2024,-1.2008,-1.2004,-1.2,-1.1999,-1.1997,-1.1996,-1.1984,-1.1981,-1.2008,-1.2008,-1.2008,0,0,-1.2127,-1.212,-1.2115,-1.2101,-1.2094,-1.2083,-1.2087,-1.2077,-1.2068,-1.2067,-1.2053,-1.2047,-1.2036,-1.202,-1.2012,-1.2015,-1.1987,-1.1996,-1.1995,-1.1994,-1.1982,-1.198,-1.1978,-1.2008,-1.2008,-1.2008,0,0,-1.2116,-1.211,-1.2099,-1.2092,-1.2082,-1.2077,-1.2074,-1.2063,-1.2059,-1.2045,-1.2043,-1.2033,-1.2014,-1.2006,-1.1999,-1.1982,-1.1981,-1.1978,-1.197,-1.1959,-1.1957,-1.1955,-1.1947,-1.1944,-1.1977,-1.1977,-1.1977,0,-1.2113,-1.2098,-1.2094,-1.2082,-1.2075,-1.2074,-1.2062,-1.2055,-1.2042,-1.2036,-1.2039,-1.2014,-1.2007,-1.1988,-1.1983,-1.1978,-1.1974,-1.1979,-1.1958,-1.1956,-1.1954,-1.1946,-1.1943,-1.1976,-1.1976,-1.1976,-1.1977,0,-1.2094,-1.2083,-1.2075,-1.2062,-1.2054,-1.2043,-1.2035,-1.2028,-1.2025,-1.202,-1.2003,-1.1994,-1.198,-1.1976,-1.1974,-1.1955,-1.1957,-1.1959,-1.1964,-1.1951,-1.1943,-1.194,-1.1976,-1.1976,-1.1976,-1.1976,0,0,-1.2083,-1.2066,-1.2063,-1.2056,-1.2043,-1.2034,-1.2021,-1.2008,-1.2,-1.1991,-1.1978,-1.1962,-1.1963,-1.1955,-1.1952,-1.1942,-1.1925,-1.1945,-1.1944,-1.194,-1.1902,-1.1899,-1.1896,-1.1925,-1.1924,-1.1924,-1.1902,0,-1.2069,-1.2047,-1.2042,-1.2022,-1.2011,-1.2008,-1.1997,-1.1987,-1.1981,-1.1969,-1.1962,-1.1949,-1.1953,-1.1948,-1.1938,-1.193,-1.1918,-1.1931,-1.1912,-1.1911,-1.1914,-1.1892,-1.189,-1.187,-1.1899,-1.1898,-1.1898,0,-1.205,-1.2039,-1.2018,-1.2004,-1.1999,-1.1989,-1.1975,-1.1965,-1.1953,-1.1949,-1.1939,-1.1936,-1.192,-1.1927,-1.1904,-1.1914,-1.1905,-1.19,-1.1899,-1.1896,-1.1903,-1.1887,-1.1863,-1.186,-1.1894,-1.1894,-1.1894,0,-1.2042,-1.2022,-1.2006,-1.2,-1.1985,-1.1977,-1.197,-1.1958,-1.1949,-1.1937,-1.193,-1.1916,-1.1908,-1.1896,-1.1889,-1.1894,-1.1866,-1.1872,-1.1861,-1.1861,-1.1854,-1.1855,-1.1827,-1.1851,-1.1851,-1.1851,-1.1851,0,-1.2026,-1.2013,-1.2002,-1.1992,-1.1977,-1.197,-1.1955,-1.1947,-1.1936,-1.1924,-1.1921,-1.1909,-1.19,-1.1886,-1.188,-1.1861,-1.1858,-1.1853,-1.1851,-1.1852,-1.1853,-1.1846,-1.1847,-1.1851,-1.1851,-1.1851,-1.1851,0,-1.2015,-1.2007,-1.1989,-1.1975,-1.1971,-1.196,-1.1947,-1.1937,-1.193,-1.1914,-1.1909,-1.1898,-1.1881,-1.1873,-1.1852,-1.1848,-1.1826,-1.1826,-1.183,-1.1829,-1.1817,-1.1817,-1.1783,-1.1777,-1.1807,-1.1806,-1.1806,0,-1.2005,-1.1995,-1.1979,-1.197,-1.1963,-1.1949,-1.194,-1.1932,-1.1923,-1.1906,-1.1897,-1.188,-1.1866,-1.1839,-1.1829,-1.1812,-1.181,-1.1799,-1.1808,-1.1808,-1.1808,-1.1808,-1.1806,-1.1798,-1.1798,-1.1797,-1.1797,0,-1.1988,-1.1984,-1.1971,-1.1956,-1.1944,-1.1932,-1.192,-1.1913,-1.1903,-1.1892,-1.1874,-1.1864,-1.1842,-1.1824,-1.1806,-1.1797,-1.1794,-1.1794,-1.179,-1.1791,-1.1793,-1.179,-1.1824,-1.1795,-1.1795,-1.1796,-1.1796,-1.1796,-1.1976,-1.1965,-1.1952,-1.1937,-1.1926,-1.1914,-1.1903,-1.1894,-1.188,-1.1861,-1.1857,-1.1838,-1.1823,-1.1799,-1.1789,-1.1773,-1.1775,-1.177,-1.1768,-1.1767,-1.1765,-1.1797,-1.177,-1.177,-1.177,-1.177,-1.177,0,-1.1957,-1.1947,-1.1934,-1.1916,-1.1903,-1.1902,-1.1888,-1.1877,-1.186,-1.1847,-1.1832,-1.1811,-1.1793,-1.178,-1.1761,-1.1751,-1.1749,-1.1746,-1.1746,-1.1743,-1.1765,-1.177,-1.1748,-1.1748,-1.1748,-1.1748,-1.1748,-1.1748,-1.1946,-1.1927,-1.1921,-1.1897,-1.1887,-1.1869,-1.186,-1.1848,-1.1837,-1.1813,-1.1798,-1.179,-1.1775,-1.1755,-1.1737,-1.1734,-1.1726,-1.1723,-1.1719,-1.174,-1.1742,-1.1744,-1.1748,-1.1722,-1.1722,-1.1698,-1.1698,-1.1697]}]]